Other Public Products
Issued by NWS Grand Forks, ND

Home | Current Version | Previous Version | Text Only | Print | Product List | Glossary On
Versions: 1 2 3 4 5 6 7 8 9 10 11 12 13 14 15 16 17 18 19 20 21 22 23 24 25 26 27 28 29 30 31 32 33 34 35 36 37 38 39 40 41 42 43 44 45 46 47 48 49 50
000
FPUS83 KFGF 281431
OPUFGF
PRAIRIE TO PINES WEATHER ROUNDUP
NATIONAL WEATHER SERVICE EASTERN NORTH DAKOTA/GRAND FORKS ND
800 AM CST SAT FEB 28 2015

 **SATELLITE DATA USED TO AUGMENT SKY COVER AT AUTOMATED STATIONS**
 *****  WEATHER ACROSS EASTERN NORTH DAKOTA  *****

CITY           SKY/WX    TMP DP  RH WIND       PRES   REMARKS
GRAND FORKS    CLOUDY     4  -2  76 S16       30.21F WCI -15
GRAND FORKS AF CLOUDY     4  -3  71 S10       30.19S WCI -11
GRAND CITY NWS   N/A      5 N/A N/A S12         N/A  WCI -11
BUXTON         NOT AVBL
DEVILS LAKE    FAIR       7  -2  66 S5        30.09S WCI  -2
FARGO          FAIR       6  -2  69 S14       30.26S WCI -11
WAHPETON ARPT  FAIR       5   0  78 S12       30.30R WCI -11
$$

 *****  WEATHER ACROSS CENTRAL AND WESTERN NORTH DAKOTA  *****

CITY           SKY/WX    TMP DP  RH WIND       PRES   REMARKS
JAMESTOWN      FAIR       3  -3  76 S14       30.12F WCI -15
BISMARCK       CLOUDY     8   3  80 CALM      30.08S
MINOT          CLOUDY     8   1  73 NW12      30.06R WCI  -7
MINOT AFB      CLOUDY     6   1  83 NW16      30.07R WCI -13
GARRISON         N/A     10   4  76 CALM      30.04S
WILLISTON      MOCLDY    -1  -8  72 W7        30.16R WCI -14
DICKINSON      CLOUDY    10   5  80 W21       30.03R WCI  -9
HETTINGER      CLEAR      6   1  80 W12       30.05R WCI  -9
$$

 *****  OTHER OBSERVATIONS NORTHEAST NORTH DAKOTA  *****

CITY           SKY/WX    TMP DP  RH WIND       PRES   REMARKS
WALHALLA         N/A      5   0  78 SE8       30.16R WCI  -8
LANGDON        NOT AVBL
CAVALIER       FAIR       5   0  78 S8        30.17S WCI  -8
GRAFTON        NOT AVBL
CANDO          CLOUDY     5   1  85 SE8       30.08S WCI  -8
FORT TOTTEN      N/A      5  -3  69 S7        29.95S WCI  -7
ROLLA          CLOUDY     5   0  78 SW3       30.05S
RUGBY          PTSUNNY    5   0  78 SE3       30.06S
 ***** THE ABOVE OBSERVATIONS ARE NON NWS ARE NOT QUALITY
        CONTROLLED AND MAY MIS-REPORT RAIN FOR SNOW...
$$

 *****  OTHER OBSERVATIONS SOUTHEAST NORTH DAKOTA *****

CITY           SKY/WX    TMP DP  RH WIND       PRES   REMARKS
COOPERSTOWN    NOT AVBL
VALLEY CITY    FLURRIES   7   1  78 S15       30.16F WCI -11
OAKES            N/A      7   0  72 S17       30.21R WCI -12
GWINNER        SUNNY     12   1  62 S16       30.22S WCI  -4
SHEYENNE NWR     N/A      1  -6  72 SE6       29.95S WCI -10
BUFFALO        NOT AVBL
WYNDMERE         N/A      3  -4  72 SE7         N/A  WCI  -9
 ***** THE ABOVE OBSERVATIONS ARE NON NWS ARE NOT QUALITY
       CONTROLLED AND MAY MIS-REPORT RAIN FOR SNOW...
$$

  *****  WEATHER ACROSS NORTHERN MINNESOTA  *****

CITY           SKY/WX    TMP DP  RH WIND       PRES   REMARKS
FLAG ISLAND    FAIR      -6  -9  84 S9        30.22S WCI -22
WARROAD        FAIR       7  -2  66 S7        30.21S WCI  -5
ROSEAU         FAIR       5  -2  72 S10       30.21S WCI -10
HALLOCK        CLOUDY     7   0  72 S18       30.19S WCI -12
THF RVR FALLS  FAIR       7   1  78 S13       30.21S WCI  -9
HALSTAD          N/A      7   0  72 S17         N/A  WCI -12
FOSSTON        FAIR       3  -2  78 S10       30.24S WCI -12
BAUDETTE       FAIR      -1  -7  75 S7        30.22F WCI -14
WASKISH        FAIR       7   0  72 SE9       30.24F WCI  -7
CROOKSTON      FAIR       9   1  72 S20       30.24S WCI -11
$$
  *****  WEATHER ACROSS CENTRAL AND WEST MINNESOTA  *****

CITY           SKY/WX    TMP DP  RH WIND       PRES   REMARKS
BEMIDJI        FAIR       1  -4  78 S8        30.26S WCI -12
PARK RAPIDS    FAIR      -1  -6  79 S8        30.28S WCI -15
WADENA         FAIR       1  -4  78 S6        30.31R WCI -10
DETROIT LAKES  FAIR       5   0  78 S10       30.27S WCI -10
MOORHEAD       FAIR       7   1  78 S20       30.28R WCI -13
FERGUS FALLS   FAIR       5  -2  72 S15       30.34S WCI -13
ELBOW LAKE     FAIR       4  -2  76 S17       30.31S WCI -16
MORRIS MN      FAIR       3  -2  78 SE15      30.34R WCI -15
STAPLES        FAIR       1  -2  85 S10G16    30.33S WCI -14
WHEATON        FAIR       3  -2  78 SE15      30.33R WCI -15
$$
  *****  WEATHER ELSEWHERE ACROSS MINNESOTA  *****

CITY           SKY/WX    TMP DP  RH WIND       PRES   REMARKS
DULUTH         FAIR       0  -5  79 SW10      30.38S WCI -16
INTRNTL FALLS  FAIR       1  -6  72 VRB5      30.27F WCI  -9
ELY            FAIR       0  -6  78 SW2       30.34S
CLOQUET        FAIR       0  -6  78 S8        30.39S WCI -15
BRAINERD       FAIR       2  -4  76 S12       30.37S WCI -15
HIBBING        FAIR     -15 -23  67 CALM      30.35F
ALEXANDRIA     FAIR       4  -3  73 S13       30.33S WCI -13
SAINT CLOUD    FAIR       1  -4  79 S12       30.44S WCI -16
MINNEAPOLIS    FAIR      -1  -6  79 SE6       30.53R WCI -13
$$

  *****  WEATHER ACROSS SOUTH DAKOTA  *****

CITY           SKY/WX    TMP DP  RH WIND       PRES   REMARKS
SIOUX FALLS    FAIR       5  -2  72 S12       30.36F WCI -11
BROOKINGS      NOT AVBL
WATERTOWN      FAIR       0  -5  79 S10       30.25F WCI -16
HURON          CLEAR      6   0  76 S10       30.27S WCI  -9
SISSETON         N/A      9   1  70 SW14G20   30.26F WCI  -7
ABERDEEN       CLEAR      6  -1  73 S13       30.23F WCI -10
MITCHELL       CLEAR      8   2  76 S13       30.31F WCI  -8
PIERRE         CLEAR     10   4  76 S9        30.15S WCI  -3
MOBRIDGE       CLOUDY    11   3  70 SE12      30.08S WCI  -3
RAPID CITY     CLEAR     14   5  67 N20       30.05R WCI  -3
$$

  *****  SOME WEATHER IN NEARBY STATES *****

CITY           SKY/WX    TMP DP  RH WIND       PRES   REMARKS
GLASGOW MT     CLOUDY    11   4  73 NW12      30.16R WCI  -3
GREAT FALLS MT LGT SNOW  12   9  85 SW6       30.14R FOG     WCI   3
CHEYENNE WY    CLEAR      9   3  77 NW6       29.88R WCI  -1
SCOTTSBLUFF NE CLOUDY     9   5  84 SE3       30.04R
OMAHA NE       FAIR      10   4  76 SE9       30.49F WCI  -3
DES MOINES IA  FAIR       4  -4  69 SE8       30.56S WCI  -9
DAVENPORT IA   FAIR      -2  -8  76 SE7       30.66S WCI -15
CHICAGO IL     FAIR       0  -3  87 S3        30.71R
EAU CLAIRE WI  FAIR      -5  -9  83 S7        30.57R WCI -19
LA CROSSE WI   FAIR      -6 -11  79 S7        30.64R WCI -20
$$

  *****  SOME NATIONAL WEATHER *****

CITY           SKY/WX    TMP DP  RH WIND       PRES   REMARKS
LA GUARDIA NY  FAIR      19  -1  41 VRB3      30.82R
RALEIGH NC     PTSUNNY   27  14  58 E13       30.78R WCI  16
ATLANTA GA     PTSUNNY   39  29  67 E13       30.57R
NEW ORLEANS LA PTSUNNY   43  30  60 NE15      30.41S
OKLAHOMA CITY  LGT SNOW  20  15  81 E7        30.38S WCI  11
ALBUQUERQUE NM LGT SNOW  21  19  92 N9        29.91S FOG     WCI  11
SALT LAKE CITY MOCLDY    27  23  85 N5        29.66R WCI  22
LOS ANGELES CA MOCLDY    55  45  68 W9        29.78R
BOISE ID       CLOUDY    35  31  85 W3        29.76R
SEATTLE WA     CLEAR     39  31  72 N10       30.09R
$$

*** WEATHER ACROSS MANITOBA...SASKATCHEWAN AND ONTARIO ***
                ***ONTARIO***

CITY           SKY/WX    TMP DP  RH WIND       PRES   REMARKS
GERALDTON      PTSUNNY    7  -6  56 SW10G17   30.28S WCI  -8
THUNDER BAY    MOSUNNY   -8 -18  59 NW6       30.43R WCI -21
SIOUX LOOKOUT  MOCLDY     1  -6  71 S9        30.22S WCI -14
TORONTO        MOSUNNY    7  -2  66 SW5       30.75R WCI  -2
BIG TROUT LK   FLURRIES   7   3  85 W7        30.03F WCI  -5
PICKLE LAKE    PTCLDY     1  -6  71 SW10      30.14S WCI -14
DRYDEN         CLOUDY     0  -6  78 S8        30.21F WCI -15
KENORA         MOCLDY     0  -6  78 S10       30.19S WCI -17
$$
                *** MANITOBA***

CITY           SKY/WX    TMP DP  RH WIND       PRES   REMARKS
BRANDON        CLOUDY    -2  -6  84 NW6       30.09F WCI -14
DAUPHIN        CLEAR      1  -6  71 W12       30.11F WCI -15
ISLAND LAKE    CLOUDY     7   0  72 SW6       30.04F WCI  -3
PILOT MOUND      N/A      0  -4  85 S6          N/A  WCI -12
THE PAS        CLOUDY     1  -4  78 SW10      30.06F WCI -14
THOMPSON       MOCLDY     9   1  72 SW8       29.93F WCI  -4
WINNIPEG       MOCLDY     1  -6  71 S16       30.16F WCI -18
LYNN LAKE      MOCLDY     1  -2  85 W9        29.83F WCI -14
CHURCHILL      LGT SNOW  10   5  79 W18G24    29.70F DRFTSNOWWCI  -8
GILLAM         MOCLDY    10   3  72 SW13      29.89F WCI  -5
$$
                ***SASKATCHEWAN***

CITY           SKY/WX    TMP DP  RH WIND       PRES   REMARKS
ESTEVAN        MOCLDY   -11 -17  77 W13       30.11  WCI -32
KINDERSLEY     CLEAR     -6  -9  84 SW6       30.13S WCI -18
LLOYDMINSTER   CLOUDY     3   0  85 W13       30.07F WCI -14
PRINCE ALBERT  PTCLDY   -18 -24  76 W3        30.10F
REGINA         PTCLDY   -17 -22  76 W5        30.13S WCI -29


USA.gov is the U.S. government's official web portal to all federal, state and local government web resources and services.